Regional Weather Roundup
Issued by NWS Jackson, KY

Home | Current Version | Previous Version | Text Only | Print | Product List | Glossary Off
Versions: 1 2 3 4 5 6 7 8 9 10 11 12 13 14 15 16 17 18 19 20 21 22 23 24 25 26 27 28 29 30 31 32 33 34 35 36 37 38 39 40 41 42 43 44 45 46 47 48 49 50

000
ASUS43 KJKL 171405
RWRJKL

EAST KENTUCKY HOURLY WEATHER ROUNDUP
NATIONAL WEATHER SERVICE JACKSON KY
1000 AM EDT WED SEP 17 2014

NOTE: "FAIR" INDICATES FEW OR NO CLOUDS BELOW 12,000 FEET WITH
NO SIGNIFICANT WEATHER AND/OR OBSTRUCTIONS TO VISIBILITY.

* THESE REPORTS ARE NOT UNDER NWS QUALITY CONTROL AND MAY NOT
  REPORT WEATHER SUCH AS PRECIPITATION AND FOG.

KYZ079-080-083-085-087-088-110-112-115-119-120-171500
...EASTERN KENTUCKY...

CITY           SKY/WX    TMP DP  RH WIND       PRES   REMARKS
JACKSON        CLOUDY    56  52  86 CALM      30.06S
LONDON         PTSUNNY   62  55  77 NE3       30.05F
MONTICELLO*    MOSUNNY   62  54  75 CALM      30.05F
WILLIAMSBURG*  PTSUNNY   59  57  94 CALM      30.05
MIDDLESBORO*   SUNNY     60  55  84 CALM      30.05S
HARLAN APT*    MOSUNNY   61  57  88 MISG      30.04F
BLACK MTN*       N/A     57  50  77 S2          N/A
PIKEVILLE APT* CLOUDY    55  55 100 CALM      30.06S FOG
BIG SANDY*     CLOUDY    55  55  99 CALM      30.06S FOG
MOREHEAD APT*  SUNNY     57  52  82 VRB3      30.08S
$$

KYZ035-036-041-042-044-050-067-078-099-171500
...CENTRAL KENTUCKY...

CITY           SKY/WX    TMP DP  RH WIND       PRES   REMARKS
MT STERLING*   MOSUNNY   59  52  77 E6        30.07S
FLEMING/MASON* CLOUDY    55  52  92 NE3       30.08S
DANVILLE*      FOG       54  54 100 CALM      30.06F VSB 1/2
RICHMOND*      SUNNY     59  52  77 SE5       30.05S
LEXINGTON      SUNNY     62  51  67 NE7       30.05F
FRANKFORT      PTSUNNY   55  52  89 VRB3      30.05F
$$

KYZ091>093-OHZ055-061-077-WVZ005-015-034-035-042-171500
...SOUTHERN OHIO/WEST VIRGINIA...

CITY           SKY/WX    TMP DP  RH WIND       PRES   REMARKS
COVINGTON      CLOUDY    55  51  86 N7        30.07S
COLUMBUS       CLOUDY    60  50  69 CALM      30.07S
DAYTON         CLOUDY    55  51  86 CALM      30.09S
WILMINGTON     CLOUDY    55  50  83 NE3       30.07F
HUNTINGTON     MOSUNNY   57  53  86 N3        30.05S
CHARLESTON     CLOUDY    57  56  96 SE3       30.06S FOG
PINEVILLE*     CLOUDY    59  58  96 MISG      30.11R
BECKLEY        PTSUNNY   59  52  77 SE9       30.07S
BLUEFIELD      PTSUNNY   62  52  69 VRB7      30.08S
$$

VAZ002-007-008-TNZ017-027-036-066-071-171500
...SOUTHWEST VIRGINIA/EAST TENNESSEE...

CITY           SKY/WX    TMP DP  RH WIND       PRES   REMARKS
WISE*          CLOUDY    59  55  88 NE3       30.08R
JONESVILLE*    CLOUDY    57  57 100 CALM      30.06F FOG
ABINGDON*      CLOUDY    64  58  80 CALM      30.05S
BRISTOL        PTSUNNY   64  56  75 VRB5      30.03S
KNOXVILLE      PTSUNNY   64  57  78 NE6       30.01F
OAK RIDGE      SUNNY     64  55  72 E3        30.04F
CROSSVILLE     CLOUDY    58  52  80 NE6       30.05F
NASHVILLE      CLOUDY    58  56  93 NE5       30.04S FOG
$$

...KEY TO REMARKS...
VSB - VISIBILITY IN MILES
WCI - WIND CHILL INDEX
HX  - HEAT INDEX

$$



USA.gov is the U.S. government's official web portal to all federal, state and local government web resources and services.